Wind_Speed
4 5 6 6 8 10 9 8 7 5 6 5 3 3 2 2 2 2 1 1 3 2 3 2 4 9 12 12 11 11 8 8 10 9 7 5 6 8 7 8 9 7 7 9 12 12 13 13 12 12 12 12 12 11 12 11 11 11 11 12 11 10 9 9 8 7 6 6 6 5 4 3 3 3 3 2 2 3 4 4 4 3 2 2 2 2
4 7 6 6 8 11 8 7 7 6 5 4 3 3 1 2 2 1 1 2 3 2 1 2 5 9 11 12 10 11 11 10 11 11 10 7 5 6 5 4 7 7 7 8 10 13 13 12 13 13 12 13 12 11 12 11 11 11 11 11 10 9 9 8 8 7 7 7 6 6 5 5 4 3 3 3 3 4 5 4 4 3 2 2 2 2
6 6 5 6 7 7 6 6 8 7 5 4 2 2 2 2 0 1 2 3 4 0 1 2 6 6 7 10 10 11 9 8 7 5 6 6 5 6 7 6 4 4 7 6 7 11 12 11 12 13 12 13 12 12 12 11 11 11 10 10 9 9 9 9 10 9 8 8 6 6 5 6 5 4 5 6 5 5 5 5 4 4 3 3 3 2
6 6 7 7 8 10 6 5 8 7 4 3 3 3 2 1 1 1 1 3 4 3 1 5 5 3 3 6 7 6 4 4 3 3 3 4 5 7 9 9 5 3 4 5 7 10 11 11 11 11 12 13 13 13 12 11 11 11 9 9 8 8 9 10 10 10 9 8 7 6 5 6 7 7 8 7 6 6 6 6 5 5 5 4 4 4
4 5 9 9 10 12 9 7 9 7 4 3 4 5 4 2 0 1 1 2 2 4 3 5 5 3 3 6 7 5 3 4 4 4 4 5 7 8 8 9 9 5 2 1 6 9 10 10 10 10 11 11 12 12 12 12 12 11 10 9 8 8 9 9 9 10 9 8 7 7 6 7 8 8 7 6 6 7 7 7 6 6 6 6 6 5
3 4 11 11 10 11 10 8 9 9 6 3 4 6 5 4 2 0 3 2 2 3 2 1 4 4 1 5 9 8 7 6 6 6 6 7 9 10 8 7 10 11 4 2 3 7 9 10 9 9 10 10 11 11 11 11 11 11 11 10 10 9 9 10 10 10 9 7 7 8 8 7 7 7 5 5 6 7 7 7 6 6 7 7 7 6
3 5 10 11 10 10 9 7 8 8 7 4 4 6 4 3 3 1 2 2 1 2 1 2 4 3 1 6 10 9 11 11 8 8 10 8 9 9 8 8 10 10 8 6 4 3 6 9 9 9 8 9 10 11 11 11 10 9 10 10 10 9 10 10 10 10 9 9 9 9 8 7 7 7 5 4 6 7 6 5 5 6 8 8 8 8
5 8 8 9 11 10 8 7 7 8 7 3 4 8 8 5 5 4 2 1 1 0 1 1 2 1 3 5 6 7 12 13 10 10 12 11 11 11 9 10 13 11 9 10 8 2 3 7 9 9 8 8 10 11 12 11 11 11 11 11 10 11 12 11 10 11 10 10 10 9 9 8 8 8 7 5 5 5 4 4 5 6 7 8 9 9
4 9 10 10 10 7 6 7 8 10 7 3 4 8 9 7 6 5 4 2 1 1 2 1 0 3 2 2 2 7 12 14 14 15 15 13 13 13 11 11 13 14 11 12 12 8 6 7 8 8 9 9 10 11 13 13 12 13 13 13 12 13 13 12 12 12 11 10 9 9 9 9 8 8 6 5 4 3 3 5 6 7 8 8 9 9
2 8 11 12 9 7 6 7 12 13 5 4 7 7 5 4 3 2 3 2 2 2 4 4 4 5 2 1 3 8 11 13 14 14 16 15 14 14 14 13 13 14 12 11 13 12 10 9 9 9 9 9 10 11 13 14 14 15 15 14 14 14 14 14 13 13 12 10 9 9 8 8 7 6 5 4 3 3 4 6 8 9 9 9 10 9
2 4 6 7 6 6 7 7 9 10 6 9 9 7 6 4 3 2 1 1 2 4 3 5 6 5 3 2 5 8 11 14 12 10 13 14 14 14 14 13 14 14 12 11 12 13 13 12 10 11 11 10 10 11 14 17 17 17 17 17 17 17 16 15 14 13 12 10 8 7 7 7 6 5 5 4 5 5 7 9 10 11 11 12 12 11
5 6 4 3 4 6 8 6 3 3 7 10 7 6 6 3 2 2 2 1 4 4 1 2 4 5 5 3 6 11 13 14 14 10 14 17 17 16 14 14 14 12 11 12 11 12 14 14 12 12 12 11 11 13 16 19 19 19 19 19 19 18 16 15 13 12 11 9 7 7 6 6 6 6 6 6 7 8 9 11 12 12 12 13 14 13
4 4 2 2 6 8 10 8 4 2 6 7 6 8 8 5 4 4 3 3 4 2 2 1 4 4 5 3 4 12 14 11 11 10 13 17 18 17 15 14 13 11 11 12 11 10 11 12 13 13 13 12 13 16 19 20 20 21 20 20 19 17 15 13 12 11 9 8 7 7 6 6 6 7 8 8 9 10 10 11 12 11 11 12 13 13
4 1 2 5 5 8 12 11 7 5 7 8 8 9 9 6 6 6 4 2 2 2 1 1 3 3 3 2 2 8 10 6 7 7 10 14 16 16 14 12 11 11 12 12 12 10 10 12 14 15 14 13 13 17 21 20 20 21 21 19 18 16 13 11 10 9 8 7 7 6 6 6 7 9 10 10 10 10 10 10 11 11 11 12 12 13
7 3 5 7 3 7 12 8 5 7 7 5 3 5 6 5 4 5 4 4 4 2 2 2 3 3 3 2 1 6 7 5 6 5 9 12 13 13 13 12 12 12 13 13 12 12 12 14 16 15 14 14 14 16 20 21 21 21 19 18 17 15 12 10 8 7 7 7 6 7 8 8 9 10 10 10 10 10 10 11 11 10 10 11 12 13
6 2 4 5 3 10 12 3 4 9 7 2 2 3 5 4 3 2 1 2 2 2 2 3 2 2 2 1 1 4 5 4 5 8 11 13 14 14 15 15 12 11 13 13 12 13 14 15 16 15 14 15 14 15 19 21 21 20 19 17 16 14 11 9 7 7 7 7 8 9 9 9 9 9 8 9 10 11 11 12 11 9 9 12 12 13
4 3 3 2 3 10 12 8 7 8 6 3 3 5 3 2 3 3 1 2 1 3 3 2 2 2 3 2 1 2 4 6 9 11 14 15 16 16 14 12 8 4 5 9 11 13 14 15 16 16 16 16 16 16 18 19 19 19 18 17 15 12 10 8 7 7 8 8 9 10 9 10 11 11 11 11 12 12 12 12 9 8 10 12 13 13
4 4 2 4 7 6 4 9 10 6 4 6 7 6 4 1 1 1 3 2 2 5 2 1 4 3 3 2 3 4 7 9 11 13 15 16 17 15 11 11 11 7 5 7 10 11 14 15 16 17 17 17 19 20 20 19 19 18 17 15 13 11 9 8 7 8 9 9 10 10 11 12 12 12 13 12 11 12 11 9 8 9 11 12 12 12
3 4 2 6 11 6 2 7 9 3 0 3 6 7 4 3 3 2 2 3 4 4 2 2 4 3 4 3 4 9 12 12 13 13 15 17 17 13 11 14 17 16 12 11 11 11 12 15 16 18 17 18 21 22 21 20 19 16 14 12 11 10 9 8 8 9 10 11 12 13 13 12 12 12 11 10 10 10 8 7 8 10 12 12 11 11
1 2 3 4 6 7 6 8 9 6 1 2 5 7 1 1 3 3 1 2 3 3 2 3 3 3 5 5 7 12 13 14 15 14 14 15 14 12 13 15 16 15 14 13 13 12 13 16 18 18 19 20 23 23 22 21 18 15 12 11 10 11 10 10 11 11 11 11 11 11 11 10 10 11 10 9 9 7 6 7 9 11 11 10 10 10
1 2 3 4 3 6 7 6 7 9 8 5 6 8 4 1 1 3 1 1 1 2 3 3 3 4 4 3 7 10 11 13 15 14 12 12 12 12 14 15 15 13 12 13 13 13 14 17 17 17 19 21 22 22 21 19 16 13 12 12 13 13 13 13 13 12 11 11 10 10 10 9 9 8 7 7 7 6 6 8 9 10 9 8 9 10
2 2 3 4 4 6 5 3 7 11 11 9 7 6 6 4 3 5 4 1 1 1 2 2 3 4 1 0 3 6 9 12 13 12 11 11 12 12 13 15 15 13 12 13 14 14 15 17 15 15 17 18 18 19 18 16 14 13 14 15 15 14 13 12 11 10 9 9 8 8 9 9 9 8 5 5 6 7 8 9 9 9 9 10 11 12
2 2 3 3 3 4 2 2 7 14 11 8 7 7 7 5 5 7 6 4 3 1 1 1 2 2 1 2 4 5 8 12 13 11 10 11 12 13 13 14 14 14 14 14 14 14 15 16 16 16 17 16 16 16 15 14 14 14 15 16 15 14 13 12 10 9 8 8 8 8 9 9 8 6 6 8 9 9 7 8 10 10 11 12 12 13
2 2 3 3 3 2 1 2 4 10 9 7 7 8 8 6 3 3 3 5 6 4 3 2 2 1 1 3 3 6 10 12 12 11 12 12 12 12 14 14 13 14 16 16 15 14 14 15 17 18 18 17 16 15 14 13 13 13 14 15 15 14 12 12 11 9 9 9 9 9 9 8 7 8 9 10 9 9 8 10 12 12 13 13 13 14
2 1 3 5 6 4 4 4 4 8 8 7 5 6 8 7 5 3 2 4 5 4 4 4 4 1 2 2 4 9 13 14 11 11 13 13 12 12 12 12 12 13 15 16 15 14 14 15 17 19 18 18 17 15 14 14 13 13 15 15 15 13 12 11 10 9 8 8 8 8 8 8 9 9 9 8 8 10 10 11 12 12 12 12 13 14
2 2 3 5 7 7 7 5 4 5 4 2 3 7 9 10 10 5 2 4 6 3 3 5 4 1 2 2 7 10 12 14 12 11 13 13 13 13 13 12 13 14 15 17 17 15 13 13 15 16 17 17 17 15 14 14 14 15 16 15 13 13 12 10 8 7 7 7 7 9 9 9 8 7 7 8 9 11 11 11 12 12 12 12 13 13
1 2 2 2 3 4 4 2 1 5 7 6 6 9 11 11 11 7 3 4 5 4 4 5 2 3 3 6 10 11 12 13 13 13 13 13 13 13 13 13 13 12 14 16 15 13 12 13 14 15 16 16 16 14 13 13 15 16 15 14 13 12 11 8 7 8 8 8 8 9 9 8 8 7 8 9 10 11 11 11 11 11 11 12 13 13
2 2 3 3 2 1 1 1 1 4 10 11 10 11 12 10 10 9 5 4 5 5 5 4 3 5 7 11 14 14 14 13 13 13 12 12 12 10 12 15 15 14 14 13 11 12 14 14 14 15 15 16 16 14 14 14 16 16 15 13 12 11 9 7 7 8 8 8 9 9 9 8 8 8 9 9 10 10 11 11 11 11 11 12 13 14
3 3 3 3 3 1 1 1 3 3 4 7 10 12 13 11 11 12 8 5 7 6 5 5 9 8 6 12 17 16 15 14 14 13 11 12 12 11 12 15 16 15 15 15 14 15 16 15 14 15 16 16 16 15 15 16 17 16 14 13 11 9 9 8 7 8 9 9 9 9 8 8 8 8 9 9 9 10 11 11 11 11 11 12 13 13
2 4 3 4 4 4 3 1 3 4 3 3 5 9 11 13 13 11 7 4 6 4 2 5 12 8 2 8 13 11 11 12 12 12 12 14 14 13 13 15 16 16 17 19 18 15 14 15 16 17 17 17 17 17 17 17 16 15 14 13 11 9 9 8 8 9 10 9 9 9 8 8 8 8 9 9 9 10 10 10 11 11 12 13 13 13
2 3 3 3 3 3 4 4 4 3 5 4 2 2 6 10 9 6 5 4 3 1 1 4 8 5 1 6 10 9 9 10 12 14 15 15 15 16 16 16 18 18 17 16 15 13 14 16 17 17 18 18 18 18 18 18 16 15 14 13 11 9 9 9 10 11 10 10 11 11 9 9 9 9 9 10 10 10 10 11 12 12 13 13 13 16
2 2 2 3 4 1 3 5 5 4 6 5 2 3 6 7 5 3 3 4 5 5 6 5 4 3 4 9 12 11 11 13 15 16 15 15 17 19 19 17 17 18 16 13 12 13 14 15 16 19 20 20 19 18 19 19 17 16 16 14 11 10 9 10 12 12 11 12 13 13 13 13 12 11 11 10 10 11 12 12 13 13 15 17 20 24
3 3 2 3 5 2 2 2 2 4 6 4 1 2 4 2 3 3 2 3 5 6 7 5 2 2 8 13 13 14 16 17 17 16 15 15 17 19 20 19 17 15 14 13 13 15 15 14 17 21 22 20 18 18 19 19 18 17 18 16 13 11 12 13 13 13 12 13 14 14 15 16 16 16 15 13 12 12 12 14 17 20 23 26 28 29
3 5 3 2 3 3 1 3 0 4 5 3 1 1 2 1 1 3 2 3 5 4 2 1 1 6 13 16 16 17 16 15 15 15 13 13 15 16 16 17 16 14 12 12 15 16 16 17 19 21 21 20 19 19 19 18 17 18 20 18 15 14 14 14 14 13 12 12 13 14 15 17 19 20 20 19 19 19 19 22 25 27 28 29 30 30
5 4 2 0 1 3 1 2 2 3 2 1 0 2 3 2 2 2 2 3 5 3 1 1 3 10 14 14 15 16 12 9 11 12 12 13 14 14 13 13 15 16 16 15 15 16 19 22 22 21 21 21 20 20 20 18 18 19 20 19 18 17 16 15 13 12 11 12 13 14 16 18 20 21 22 23 24 25 26 27 28 28 29 30 31 31
6 5 3 1 1 2 3 2 2 1 1 2 3 2 2 3 3 2 2 5 7 7 4 3 6 11 12 10 10 10 8 9 8 8 11 14 14 15 15 13 14 16 18 18 19 21 22 22 23 24 23 22 22 21 20 19 20 21 21 19 19 20 20 18 14 12 13 14 14 16 18 20 22 24 24 25 26 27 28 28 29 29 30 31 32 32
6 5 3 2 1 1 3 3 0 3 2 2 2 3 5 4 4 3 2 3 6 8 7 6 8 12 12 11 10 10 10 10 7 5 9 13 14 14 14 13 15 17 17 18 20 22 21 21 22 23 22 21 22 23 22 21 22 23 22 19 18 21 22 21 17 15 15 15 15 18 20 21 24 25 25 26 27 28 28 29 29 30 30 32 32 32
2 3 4 3 1 0 3 3 1 3 3 2 1 3 4 3 2 1 1 0 5 9 9 9 12 14 13 13 14 12 11 9 7 8 10 12 12 11 10 11 14 16 18 20 20 20 20 21 23 24 24 23 24 25 26 24 23 23 21 19 20 21 22 22 20 17 17 18 18 20 22 23 25 26 26 27 27 28 29 29 30 30 30 31 32 31
2 0 2 4 2 2 4 4 3 3 3 3 1 1 2 2 2 2 0 1 5 9 11 11 14 15 14 15 17 14 11 9 9 9 11 13 12 11 11 11 12 15 19 21 23 23 24 24 24 25 26 26 26 27 28 26 24 23 20 20 21 22 22 23 21 19 19 19 19 21 23 24 25 26 27 28 28 29 30 29 29 30 30 30 31 30
2 1 2 4 4 4 4 3 2 3 2 3 2 2 2 2 3 3 3 2 2 8 12 13 16 18 16 15 15 15 12 9 6 6 13 15 13 13 14 15 16 18 21 21 21 23 24 26 28 27 24 24 26 27 27 25 23 21 19 21 22 23 23 23 21 20 20 20 20 22 23 24 25 26 28 29 29 30 30 29 29 29 30 30 29 28
2 1 0 3 4 5 5 3 1 2 2 2 2 3 2 2 2 4 4 1 1 7 11 11 13 17 18 17 15 12 6 1 2 8 15 16 14 13 15 17 20 22 24 24 26 27 25 25 28 28 26 27 29 28 27 25 22 20 21 23 24 24 24 22 21 21 20 21 22 23 23 25 26 27 28 28 29 29 29 29 29 29 29 28 27 27
2 2 1 2 4 3 3 3 1 2 2 3 3 2 2 3 3 2 1 1 2 7 10 10 11 15 18 16 11 5 3 5 7 13 16 16 14 14 14 16 18 20 21 24 28 30 27 24 24 26 27 28 29 29 27 25 24 23 24 25 25 25 24 23 22 21 21 22 22 23 25 26 26 27 27 27 27 28 28 28 28 28 28 27 26 26
1 2 2 3 2 2 2 3 2 1 3 7 8 4 3 3 1 1 1 0 2 6 9 10 10 13 16 12 5 6 8 10 12 14 14 14 15 16 16 17 19 21 24 24 24 26 29 28 26 27 27 27 29 29 26 24 26 26 25 26 26 26 25 24 22 22 22 23 24 24 25 26 26 26 27 26 26 27 28 28 27 27 26 25 24 23
1 1 2 2 2 2 3 4 2 0 1 4 5 3 2 1 1 1 1 1 1 4 7 7 9 12 14 9 8 9 11 12 13 14 14 14 15 16 17 19 21 24 26 25 24 27 31 32 28 25 24 25 28 28 25 26 29 28 26 25 26 27 26 25 23 23 23 24 25 25 26 26 26 25 25 25 26 27 28 27 26 26 25 23 20 20
0 1 0 1 1 1 1 1 1 2 2 2 1 1 3 3 2 1 2 1 1 3 5 6 8 10 10 10 11 11 11 12 13 13 13 14 16 15 16 19 23 25 26 24 25 29 34 34 29 24 22 23 26 26 25 27 30 29 26 26 27 27 27 26 24 24 24 25 25 25 26 25 25 25 24 25 26 27 27 26 25 23 22 20 18 18
1 1 0 0 1 1 1 1 2 3 3 3 2 2 4 4 2 1 2 2 1 3 4 6 8 9 11 12 12 11 11 13 14 13 14 17 16 14 15 19 23 25 25 23 23 28 32 32 29 26 24 23 24 25 25 27 29 29 28 27 27 26 26 26 26 26 25 25 25 25 25 25 25 24 24 24 25 26 26 25 24 22 19 18 16 16
0 1 0 1 1 2 1 1 3 4 3 4 4 3 2 2 2 2 2 3 2 1 4 6 8 10 11 12 12 12 13 14 15 14 14 15 14 13 17 22 24 24 24 24 26 31 32 28 24 24 24 23 23 25 26 27 28 28 28 28 27 26 26 26 26 26 26 26 26 25 25 25 25 24 24 24 25 25 24 23 23 20 17 15 15 14
0 1 1 1 1 1 1 2 3 4 4 4 3 2 2 3 3 3 2 2 1 1 3 6 9 11 10 10 13 15 14 14 15 14 12 11 14 16 18 21 23 21 20 22 28 34 33 27 23 24 25 24 25 27 28 27 28 28 28 28 26 26 26 26 26 27 27 26 26 26 25 25 25 25 25 25 25 24 23 22 21 19 17 15 14 13
0 1 0 1 1 1 2 2 2 3 3 4 3 2 2 3 4 4 3 1 2 4 5 6 7 8 10 12 13 15 15 14 14 15 13 12 15 17 18 19 22 22 21 23 28 34 34 30 26 25 25 26 28 29 28 27 28 28 28 27 27 27 27 27 27 27 27 27 26 26 26 25 26 26 26 26 25 24 23 22 21 20 19 18 16 15
1 1 2 2 1 0 1 2 2 1 1 2 2 1 1 2 2 3 2 1 4 6 8 8 6 4 7 12 14 16 15 13 13 16 16 13 15 17 18 20 21 21 21 23 27 31 34 33 31 28 24 24 27 28 27 27 28 28 28 28 28 28 27 27 28 27 27 27 27 27 27 26 26 26 26 26 25 24 23 21 20 19 18 18 17 16
1 1 1 1 1 1 2 1 2 0 2 1 1 1 2 1 2 2 2 2 3 5 8 10 10 7 6 8 11 15 16 15 15 16 15 14 17 20 22 23 23 22 21 23 26 26 26 29 32 30 25 23 23 25 26 27 28 28 28 28 28 27 27 28 29 27 26 27 27 27 27 27 27 27 26 25 24 23 21 20 19 18 17 17 16 15
Wind_Direction
171 174 185 183 170 169 176 180 168 145 144 135 128 155 150 200 187 101 190 309 338 198 157 166 156 144 159 168 164 158 155 168 175 176 174 165 167 161 153 152 146 135 121 119 124 126 136 144 149 153 152 154 156 160 165 165 165 165 166 165 165 165 164 163 160 159 160 151 138 128 129 131 123 117 96 73 52 50 55 61 63 56 36 14 5 356
186 195 186 171 165 167 166 151 131 116 122 125 137 154 145 212 177 66 256 334 329 218 102 75 150 153 166 169 168 166 168 183 189 189 185 181 157 111 102 131 131 119 114 117 116 116 125 133 139 143 144 150 154 160 165 167 168 168 167 166 164 163 163 164 161 159 155 146 136 129 133 137 130 119 96 84 81 82 81 80 80 76 63 50 37 23
194 202 170 160 158 142 127 139 142 134 133 126 130 148 160 201 280 266 237 350 345 211 120 175 155 147 164 168 173 178 178 184 186 190 186 175 139 100 76 59 66 102 116 118 107 110 114 115 128 136 141 151 154 159 165 166 166 164 163 161 161 159 159 162 160 153 141 134 134 133 134 131 122 118 113 108 107 102 93 86 81 76 74 69 57 35
187 190 161 149 143 132 123 147 150 145 155 154 162 183 176 160 3 184 166 14 14 30 114 157 124 104 161 163 173 182 167 149 130 91 112 153 142 130 113 92 71 38 76 112 111 108 110 112 123 132 140 149 149 155 164 165 164 162 160 158 158 157 157 158 153 143 136 137 145 143 134 128 119 119 123 117 107 99 92 88 83 78 71 58 41 21
156 147 148 147 152 148 141 153 158 161 176 178 188 206 199 168 121 108 353 340 80 56 79 138 118 113 187 182 183 198 185 156 147 121 127 160 150 138 129 118 116 104 14 334 125 117 113 115 124 132 138 143 144 151 160 168 171 168 165 161 156 156 155 151 144 140 140 142 146 143 137 134 128 123 123 112 98 94 90 86 81 71 55 38 27 18
152 130 143 149 161 155 144 158 173 172 170 183 207 215 210 174 150 74 350 339 151 119 80 161 180 162 196 215 196 198 207 192 179 179 181 177 164 153 138 124 128 130 125 359 68 110 117 117 123 127 131 136 139 144 152 164 171 168 165 160 156 154 148 142 140 141 142 141 143 149 148 144 139 129 116 101 97 94 88 80 72 55 40 27 19 17
142 147 156 154 158 157 152 164 184 179 168 183 197 190 186 153 143 176 333 338 199 157 61 299 237 165 143 218 202 198 210 203 186 194 204 190 174 173 153 134 137 139 128 104 63 63 113 119 121 119 122 131 134 137 144 151 154 154 154 151 149 146 141 138 141 143 143 141 139 147 146 134 127 120 109 102 99 93 81 66 53 36 26 21 17 15
128 147 166 156 155 166 168 169 184 183 170 173 173 163 167 173 180 191 217 252 288 340 343 339 303 209 166 198 202 206 213 214 205 202 209 201 185 182 172 154 148 146 141 133 132 157 134 120 118 117 118 127 130 133 139 142 142 144 144 142 139 137 139 141 145 148 148 146 142 142 135 120 111 109 107 108 97 84 64 45 40 31 23 22 19 16
126 160 170 160 162 177 173 154 163 176 175 167 161 163 170 184 195 197 206 221 53 248 228 124 291 235 178 121 194 204 210 220 221 212 209 203 192 185 180 173 157 146 154 152 144 151 150 128 124 123 123 129 132 132 135 139 141 141 140 140 140 140 144 148 152 152 148 148 142 134 124 111 103 98 97 97 79 62 46 32 30 27 22 20 17 18
164 177 169 164 173 179 160 145 162 177 180 138 141 137 131 132 134 179 212 181 112 223 227 169 192 224 204 124 183 194 207 223 226 216 210 199 190 191 184 175 160 150 161 165 146 141 144 138 132 126 120 123 128 130 134 137 138 138 137 140 143 143 145 148 150 148 142 139 133 123 110 96 91 86 80 72 56 41 26 21 23 23 19 16 14 15
94 143 157 171 179 163 147 147 171 177 144 128 135 123 108 102 91 92 104 120 170 225 217 175 193 223 232 194 183 197 206 214 217 205 198 192 184 192 190 176 165 158 167 169 147 134 135 137 133 125 119 121 126 128 130 134 137 138 139 142 141 139 140 141 142 139 134 132 125 110 91 78 77 76 71 63 53 39 27 25 24 20 15 12 11 11
98 128 158 178 162 135 131 141 178 177 140 140 144 141 138 126 121 129 107 166 216 220 153 161 185 206 229 214 200 218 217 212 215 194 179 183 183 189 191 180 170 162 164 165 149 132 131 136 136 131 128 130 132 131 131 134 137 138 139 138 134 131 134 135 135 133 128 123 108 90 79 75 74 73 69 62 48 37 33 31 24 18 15 12 9 10
116 144 161 152 166 156 145 151 164 175 169 167 157 158 167 163 164 189 186 192 222 210 73 115 171 193 238 241 213 228 228 224 229 207 178 179 184 186 183 174 168 164 164 161 150 135 135 141 142 139 137 137 137 136 136 138 139 137 136 135 131 128 130 129 128 125 118 107 92 82 80 76 71 67 60 54 44 37 36 31 22 18 15 11 9 10
152 184 176 155 167 173 168 169 171 174 181 181 169 170 179 170 168 186 182 179 221 197 52 82 175 196 241 238 237 243 242 256 270 230 179 173 180 180 175 168 165 166 166 161 151 140 140 146 145 143 142 141 141 140 141 142 140 137 137 136 131 126 125 123 118 112 101 93 86 81 78 70 64 60 54 49 42 39 36 27 23 20 14 9 6 7
173 185 179 167 147 174 182 182 158 144 158 175 159 170 184 175 172 180 179 190 190 151 88 120 187 201 188 161 286 273 270 283 276 222 168 163 168 166 165 166 166 167 163 155 150 145 144 147 146 145 143 143 144 141 141 143 142 139 136 134 130 125 123 116 105 98 90 85 80 75 71 66 62 58 54 49 47 47 42 33 26 19 17 17 11 8
171 140 167 170 134 170 178 166 113 134 150 166 109 159 194 185 157 138 147 179 162 141 138 171 226 250 222 218 295 273 263 228 202 174 157 156 154 156 165 166 161 159 154 148 149 147 145 145 143 142 142 141 141 140 140 142 142 140 136 132 128 123 117 106 97 95 90 83 75 68 64 62 64 65 61 59 59 51 38 27 17 13 25 28 18 14
157 122 156 157 146 179 175 154 162 171 159 146 170 177 171 119 112 121 112 54 109 195 174 167 220 258 256 247 184 205 209 183 174 166 159 154 151 157 163 152 127 105 133 145 146 143 141 141 140 140 141 139 138 139 140 140 140 138 134 130 123 115 107 101 98 94 83 76 71 66 64 68 74 76 72 66 59 41 21 15 16 23 31 26 19 19
159 127 143 170 171 195 184 158 176 203 153 149 184 170 120 71 55 118 165 114 171 201 165 153 206 205 225 213 151 183 195 184 175 168 162 157 154 152 145 140 141 142 142 135 133 134 135 137 138 139 139 139 141 142 139 138 137 134 130 126 118 111 108 104 96 85 77 74 75 75 76 77 76 69 61 53 42 26 14 17 35 40 33 26 23 22
188 140 144 196 184 169 140 170 176 203 263 156 168 156 143 205 191 148 171 158 178 190 144 168 211 226 224 207 187 197 199 192 180 167 162 160 157 150 143 154 162 160 153 143 141 141 139 139 140 138 138 139 141 139 136 135 134 130 127 122 115 112 111 102 91 84 82 84 84 83 76 69 62 55 51 43 30 22 21 32 43 41 33 28 26 22
202 163 156 201 188 151 158 194 184 169 123 60 146 164 194 295 168 160 165 162 183 183 153 161 186 237 232 216 209 202 195 191 183 171 163 156 154 155 154 159 164 161 154 149 147 144 140 140 140 138 139 141 140 138 136 135 133 128 124 119 117 115 106 95 88 85 85 84 81 76 68 57 53 50 47 44 38 33 37 44 45 40 33 28 27 24
176 208 165 151 162 167 179 202 184 162 157 157 167 176 172 60 123 162 132 48 172 172 165 161 185 232 234 217 217 204 191 191 188 179 168 154 155 161 157 156 157 154 147 141 139 137 135 135 135 137 140 140 137 136 135 134 131 128 126 125 122 112 98 87 81 78 76 75 70 68 67 61 51 40 33 39 46 49 56 54 47 40 35 34 35 32
186 200 163 150 174 187 166 127 158 169 174 176 174 176 173 157 152 172 176 151 67 147 172 176 206 218 198 334 250 210 185 186 188 181 166 151 155 159 157 154 148 141 136 136 137 136 135 135 134 135 137 136 132 132 133 132 130 130 129 126 118 103 92 84 75 70 68 66 65 67 66 56 44 36 44 70 72 65 60 57 51 46 49 51 47 47
169 136 149 156 172 180 129 80 179 180 175 175 181 181 178 174 176 186 186 158 143 158 172 206 231 194 96 330 270 214 178 175 179 174 158 151 153 152 152 149 142 139 139 141 143 140 136 136 135 136 137 134 130 130 131 130 130 130 125 117 107 97 91 86 78 74 73 72 74 72 60 50 50 63 83 90 85 76 66 60 59 56 58 60 58 59
163 144 153 139 118 130 79 29 188 179 168 179 197 185 176 180 178 178 161 150 169 182 170 201 219 147 38 309 244 183 165 163 168 160 147 149 150 145 143 141 137 140 142 146 149 142 133 133 137 141 141 137 133 131 131 128 126 122 114 105 98 92 88 86 82 80 79 78 77 67 56 61 79 86 86 84 82 79 74 70 69 64 63 66 67 66
186 179 169 151 139 149 156 139 172 191 190 192 190 176 174 162 127 101 110 160 190 193 179 209 212 130 4 326 171 164 160 157 159 154 145 147 148 141 139 137 136 140 144 147 147 139 133 137 143 147 146 142 139 137 134 130 123 114 106 101 96 90 87 84 77 74 75 72 67 65 71 86 87 80 84 88 83 80 80 78 76 72 70 70 68 66
158 163 174 167 161 168 177 175 175 178 181 193 167 168 176 168 160 160 145 176 199 183 176 219 210 118 335 232 162 160 160 152 150 152 147 146 150 146 143 141 141 145 148 147 143 138 135 139 145 148 145 141 139 136 132 126 117 109 103 98 95 92 87 77 68 71 77 76 77 85 93 93 83 83 96 94 87 86 87 85 82 78 75 72 67 65
109 163 165 153 158 167 173 177 140 148 167 187 178 171 181 182 177 172 163 189 187 149 180 226 194 136 216 203 171 162 163 154 145 150 148 146 151 149 144 144 142 145 147 142 137 134 135 142 149 148 141 136 136 134 128 122 116 111 104 97 95 91 81 71 74 84 87 88 91 93 96 93 88 93 95 89 90 94 91 88 85 79 77 74 70 67
113 186 171 111 91 113 164 156 167 182 187 186 176 174 184 183 176 181 194 180 144 151 203 204 161 181 199 193 182 171 167 160 150 152 150 144 147 145 140 142 140 138 136 133 136 141 145 151 151 144 136 131 133 131 124 119 114 108 103 98 94 87 79 82 90 91 93 98 95 92 97 101 96 92 90 90 94 96 93 91 87 82 80 77 73 68
145 190 187 134 109 92 299 221 198 199 194 185 179 178 177 175 180 189 195 171 160 194 231 170 174 200 194 187 191 181 170 165 154 148 143 138 141 141 140 141 138 138 140 145 153 153 153 154 147 138 135 131 133 131 123 116 110 105 104 102 97 91 96 102 97 95 101 102 98 98 103 105 99 91 90 93 93 92 92 89 84 80 76 73 70 65
186 183 165 150 123 81 39 22 171 171 159 167 190 186 175 176 185 188 182 166 170 208 281 171 182 202 191 181 189 176 159 155 144 140 143 143 143 145 147 147 144 147 153 156 158 155 152 150 142 138 139 137 137 134 124 117 113 112 111 107 102 102 110 114 105 101 104 104 107 111 106 99 97 95 94 93 91 90 88 84 81 78 74 71 68 65
219 183 145 159 151 82 47 46 72 143 154 140 160 192 170 169 176 175 154 148 154 133 46 166 182 206 234 170 166 146 132 137 144 151 154 152 153 153 154 155 154 154 157 156 154 150 147 144 142 143 144 143 143 139 130 126 125 123 119 113 111 112 115 116 110 106 107 112 121 123 114 103 99 97 96 94 91 90 87 85 82 77 74 73 71 73
196 163 110 176 191 152 37 37 46 90 124 125 139 177 168 162 160 149 143 173 180 147 126 141 180 213 180 159 153 144 141 146 155 161 160 160 162 161 160 161 159 157 156 154 150 146 144 144 147 149 150 149 147 140 134 133 133 128 121 116 118 121 121 117 115 116 119 124 130 131 125 120 111 103 98 94 92 92 89 86 82 79 80 81 82 82
159 146 128 185 190 153 28 6 38 112 134 140 164 178 172 161 145 137 131 213 198 155 139 156 199 148 151 154 153 153 159 165 168 169 167 166 167 167 164 161 158 156 154 153 151 147 145 146 151 153 153 151 145 138 138 139 136 132 129 127 129 132 125 117 118 120 121 125 132 133 128 123 117 111 107 102 99 97 93 92 91 90 90 89 87 85
140 145 146 202 188 153 15 330 153 147 159 161 15 228 216 275 178 170 193 227 206 173 128 79 64 140 156 164 168 168 169 171 170 168 165 162 164 164 161 157 155 155 156 154 151 150 150 152 155 155 152 149 141 136 138 138 132 132 135 137 140 137 125 117 119 121 120 123 130 130 126 122 118 115 112 110 108 105 102 100 98 96 95 92 90 88
142 144 136 138 169 139 46 349 129 137 141 130 272 238 226 239 253 264 288 247 212 199 105 73 184 175 171 173 177 175 168 151 149 157 160 159 159 156 155 159 160 159 162 158 153 155 157 157 157 154 148 145 141 138 138 135 131 133 136 140 142 135 125 121 121 122 123 123 126 128 125 121 119 116 114 112 109 107 105 102 100 98 96 94 92 89
145 141 116 67 84 136 126 134 142 101 42 148 164 170 159 179 209 229 243 217 207 207 192 169 184 182 173 169 168 162 144 125 127 148 161 163 164 160 158 162 162 162 164 161 159 161 160 158 156 152 146 144 141 139 139 138 138 138 138 141 142 134 130 131 128 125 127 127 128 129 127 123 121 118 115 112 110 108 106 104 102 99 97 95 93 90
143 142 129 86 26 139 141 141 153 324 318 163 162 167 167 180 193 192 213 200 189 196 191 165 167 174 168 159 149 132 122 123 131 165 176 172 173 169 163 160 159 159 159 154 153 155 153 149 149 146 142 141 138 138 139 140 142 141 138 138 140 136 135 138 136 134 134 132 131 131 129 126 124 120 116 114 112 109 107 105 104 101 98 96 93 89
135 165 166 147 96 97 124 128 178 279 270 235 176 167 173 184 185 168 336 272 177 185 187 172 165 168 162 152 144 132 124 137 165 191 190 182 174 162 153 148 147 148 146 142 139 140 141 143 144 143 141 140 140 143 146 144 143 142 138 138 142 140 137 138 139 140 139 137 136 135 132 128 126 123 119 117 114 112 110 108 106 103 100 97 94 91
62 11 160 137 128 150 137 139 172 214 251 270 256 157 184 181 139 117 296 236 177 172 177 172 164 165 164 155 150 146 147 170 195 194 180 173 162 147 140 134 129 135 142 143 142 143 143 143 143 142 141 141 143 148 150 148 146 142 137 138 143 141 137 138 140 143 144 141 140 138 134 131 128 125 122 119 117 114 112 110 107 104 102 99 95 93
79 53 139 137 140 152 143 136 185 216 241 277 266 217 210 157 131 170 198 209 163 167 174 174 167 168 166 158 159 166 171 189 211 174 154 152 145 138 139 135 132 137 142 142 141 140 141 142 142 141 139 140 144 146 147 146 144 138 135 141 142 138 137 139 142 145 146 143 142 139 136 133 130 127 124 121 119 116 114 111 109 107 104 100 97 94
95 62 88 144 145 155 157 152 216 238 217 228 227 205 185 159 185 203 187 111 128 178 181 180 172 170 167 165 173 183 184 218 50 113 130 136 133 134 137 134 136 142 145 145 144 141 139 141 143 141 141 144 146 148 148 146 139 134 139 143 140 136 139 142 144 145 144 143 142 140 136 134 131 128 125 123 121 118 116 114 112 109 105 102 99 96
131 103 85 141 137 140 159 149 158 266 217 163 144 161 199 190 193 199 132 78 185 183 181 182 179 176 175 174 176 164 104 84 99 118 130 135 132 129 127 122 123 129 133 137 142 142 138 137 139 139 140 145 148 150 152 148 140 139 144 143 139 140 144 145 144 144 143 142 140 138 136 133 131 129 127 125 123 120 117 116 114 110 107 104 101 97
173 152 145 157 143 107 119 141 155 236 193 151 136 142 214 214 178 10 61 121 198 183 177 178 180 180 180 173 140 106 113 116 119 128 134 133 130 129 129 125 125 130 133 134 140 143 140 137 139 139 140 145 149 152 155 150 143 144 146 143 142 146 146 145 145 144 143 141 139 137 135 133 132 131 129 128 125 122 119 117 114 111 109 105 100 96
250 159 142 185 191 163 157 164 165 313 212 159 135 144 220 249 19 314 228 85 149 180 177 175 177 180 177 156 121 122 128 126 131 137 136 133 133 134 133 132 133 138 141 141 142 146 142 137 135 135 138 146 151 153 158 154 148 147 147 145 147 149 147 147 147 145 144 142 139 136 135 134 133 133 131 129 127 124 122 119 115 112 110 104 99 96
34 46 173 226 207 182 190 219 299 330 301 270 327 323 296 322 345 250 256 337 140 178 180 175 172 169 159 139 130 132 132 132 138 139 137 140 142 138 134 135 137 141 143 142 143 146 144 140 136 134 136 146 151 154 158 158 152 149 148 148 151 151 149 149 149 146 144 142 139 138 136 135 135 134 132 131 129 126 124 120 116 113 109 103 99 98
12 68 208 214 107 231 271 312 319 316 315 306 299 283 288 307 329 298 278 289 240 185 181 172 159 152 146 139 136 136 140 143 141 138 141 145 144 137 133 136 140 141 141 140 142 143 141 138 137 136 136 143 151 154 155 158 156 153 152 152 154 153 152 152 150 147 144 142 141 140 138 137 136 134 133 133 131 128 125 121 117 113 109 105 102 99
34 150 176 64 136 194 202 19 332 306 311 315 308 297 281 289 315 318 281 281 289 219 181 160 144 144 147 145 140 139 144 146 142 140 144 145 142 139 140 142 144 143 141 143 145 145 141 137 137 138 137 141 150 154 153 155 158 156 154 154 155 155 156 155 151 147 145 144 143 142 141 139 137 135 134 133 130 128 124 121 117 114 110 109 105 100
64 265 271 114 148 214 282 349 324 301 285 277 285 299 302 309 326 327 300 283 276 170 153 146 143 146 148 146 141 140 146 150 146 142 142 143 145 148 147 144 142 139 138 143 146 146 144 141 139 140 140 144 152 155 154 157 160 159 156 156 158 159 158 156 152 149 147 146 145 144 143 141 138 136 134 132 130 128 125 122 119 115 112 110 106 102
280 279 204 136 128 308 287 263 274 291 272 239 227 243 278 308 324 324 315 263 165 145 136 138 146 150 151 150 145 142 147 154 151 143 142 145 149 151 148 141 138 138 139 143 147 150 149 146 144 142 142 149 156 156 155 159 162 161 159 160 161 162 161 157 153 150 148 148 147 145 144 142 139 138 135 133 132 129 127 125 122 118 114 108 103 101
258 166 145 164 169 29 323 225 208 267 289 222 206 264 309 311 299 288 273 176 159 151 144 140 130 119 141 152 151 148 149 156 158 150 146 148 150 147 141 136 134 137 142 144 148 151 151 149 148 145 143 149 156 156 156 160 162 162 163 164 165 166 163 157 152 150 149 149 147 146 144 142 140 139 137 134 133 130 128 128 125 119 114 108 103 101
288 175 171 186 161 26 331 256 195 272 345 24 103 1 342 316 262 246 223 175 158 153 150 147 139 130 136 154 161 156 151 155 161 156 147 147 148 145 142 140 138 139 143 145 145 146 148 148 149 148 146 148 153 155 157 159 160 163 166 167 168 169 166 159 153 150 150 150 149 148 146 143 141 141 139 136 135 132 130 129 126 119 115 110 105 102
Height
759 764 766 763 764 765 765 764 765 769 770 772 776 775 775 774 771 773 771 767 768 765 768 771 770 775 774 773 775 775 778 778 779 783 783 783 782 782 786 788 790 792 794 795 796 798 799 801 803 804 806 807 809 810 812 814 815 816 818 819 820 821 823 824 825 827 828 829 830 832 833 833 834 835 836 836 836 837 837 838 838 838 838 837 837 836
760 762 762 760 761 762 764 767 767 771 773 772 774 775 777 776 771 774 773 769 768 765 771 777 775 776 773 772 775 776 779 780 777 779 780 782 784 785 788 791 792 794 796 797 797 799 800 802 804 805 806 807 809 810 812 814 815 817 818 819 820 821 823 824 825 827 828 829 830 831 833 834 835 835 836 836 836 837 837 837 838 837 837 837 836 836
763 762 760 761 763 765 769 771 768 770 772 773 775 776 776 776 774 774 771 770 769 765 773 778 775 778 776 773 776 777 779 779 777 779 779 782 786 789 792 796 799 798 798 800 799 799 801 803 804 805 807 808 809 811 813 814 816 817 819 820 821 821 823 824 825 827 827 829 830 832 833 834 835 835 836 836 836 837 837 837 837 837 837 836 836 835
764 760 759 764 765 766 773 774 770 770 773 773 775 776 776 777 778 774 771 773 773 769 773 775 777 785 783 779 781 780 780 780 780 782 781 782 785 789 791 795 802 804 803 803 801 800 802 804 806 807 808 809 810 812 814 815 817 818 819 820 821 822 823 824 825 826 827 829 831 832 834 834 835 835 836 836 837 837 837 837 837 837 836 836 835 835
757 755 758 764 762 762 770 775 771 770 775 777 775 773 773 776 777 775 774 773 773 775 774 772 780 790 789 785 785 782 781 782 782 784 785 784 785 788 790 791 796 802 806 807 802 801 803 804 806 808 809 810 811 813 814 816 817 818 819 820 821 822 823 824 825 826 828 829 831 832 834 834 835 835 836 837 837 837 837 837 837 836 836 835 835 834
754 756 758 762 761 760 766 773 770 767 773 779 776 772 770 773 775 776 775 772 773 779 779 777 783 791 793 789 784 782 784 785 784 785 787 787 787 788 791 793 794 796 802 807 805 803 804 805 807 808 809 810 812 813 814 816 817 818 820 820 822 823 824 825 826 827 829 830 831 832 833 834 834 835 836 837 837 837 837 837 837 836 836 835 835 834
755 758 757 758 761 762 765 770 769 765 771 778 773 770 771 772 775 776 775 775 778 781 782 780 780 788 797 792 783 781 784 785 786 787 786 788 789 788 790 793 795 797 798 803 808 810 807 807 808 809 810 811 812 814 814 816 818 818 820 821 822 824 824 825 827 828 829 830 831 832 832 833 833 834 835 836 837 837 837 837 836 836 835 835 834 833
754 760 759 757 759 762 763 767 769 766 768 773 769 768 773 772 775 776 775 778 780 781 782 779 776 783 791 790 785 783 783 784 787 789 786 786 788 788 788 790 793 795 796 799 806 813 812 809 810 811 811 812 813 814 815 816 818 819 820 822 823 825 825 826 828 828 829 830 831 831 832 832 833 833 835 835 836 836 836 836 836 835 835 833 833 831
752 758 760 758 759 761 760 760 765 765 764 768 768 769 769 769 772 773 773 779 782 783 784 780 779 783 786 788 789 787 786 785 785 785 783 784 786 786 787 790 791 793 795 796 799 808 812 810 811 812 812 813 814 814 816 817 819 820 821 823 824 826 826 827 828 829 829 830 830 831 831 832 832 832 833 834 835 836 836 835 835 834 833 832 831 831
750 750 752 754 757 758 757 758 761 761 761 764 768 769 769 771 775 775 776 780 785 790 788 781 780 783 786 790 791 789 788 784 778 776 776 779 784 784 785 788 790 792 795 795 795 800 808 810 811 813 813 814 815 815 816 817 819 820 822 824 825 826 827 828 829 829 830 830 830 831 831 831 831 832 833 834 834 835 834 834 833 832 831 831 831 830
748 747 749 750 752 752 754 759 759 757 759 764 768 769 772 777 778 781 782 781 789 795 787 780 779 781 786 788 787 783 775 769 768 770 772 777 782 783 783 786 789 790 793 795 795 798 806 810 811 813 814 815 815 816 816 817 819 821 823 825 826 827 828 829 830 830 830 831 831 831 831 831 831 832 832 833 833 833 833 832 831 831 831 831 830 830
749 751 752 749 748 749 754 761 762 760 760 762 763 765 775 782 781 784 787 788 795 795 786 785 784 783 785 781 776 771 761 757 760 764 769 775 778 779 781 784 787 788 791 795 796 798 804 809 811 813 814 815 816 816 817 818 819 821 823 825 826 828 829 829 830 831 831 832 832 832 832 832 831 831 832 832 832 832 831 831 831 831 831 831 831 830
750 751 751 749 747 747 752 760 765 765 762 759 760 765 776 786 790 793 792 792 795 789 788 793 788 785 781 769 765 765 758 756 756 757 763 769 772 775 778 782 785 787 791 794 796 798 803 808 810 812 813 814 815 816 817 818 820 822 823 826 827 828 830 830 831 831 831 832 832 832 832 832 831 831 830 830 831 831 831 831 831 831 831 831 831 830
754 753 750 750 750 745 745 754 762 765 762 758 758 762 772 784 796 802 799 799 797 788 790 793 787 785 778 765 767 768 761 760 759 757 760 765 769 773 777 780 783 786 789 792 795 798 802 807 809 811 813 814 815 816 817 819 820 822 824 826 827 829 830 831 831 832 832 832 832 832 832 831 830 829 829 830 831 831 831 832 832 832 832 832 831 830
755 757 750 747 749 745 742 746 750 755 759 758 756 756 764 771 782 792 791 791 791 787 793 795 787 782 775 768 771 769 765 765 762 758 758 763 767 772 777 781 783 786 789 790 793 797 801 805 808 810 812 814 816 817 818 819 821 823 824 826 827 829 830 831 831 832 832 833 832 831 831 830 829 829 830 831 831 832 832 832 833 833 832 832 831 830
750 753 745 742 744 741 744 746 744 750 760 763 759 759 764 760 764 781 787 785 784 784 791 794 787 777 769 766 768 767 768 766 760 758 759 764 768 772 777 781 783 786 788 789 792 796 801 804 807 810 812 814 816 818 819 820 822 823 824 826 827 828 829 830 831 832 832 832 831 830 830 829 829 830 831 832 832 832 832 832 832 832 832 831 831 830
749 751 745 744 745 740 741 745 743 746 755 764 763 762 763 757 758 777 791 795 790 783 788 794 786 777 770 765 766 768 768 766 762 760 761 765 770 774 778 782 787 791 791 791 791 794 799 804 807 809 812 814 816 818 819 820 822 823 824 825 826 827 829 830 831 831 830 830 830 830 830 830 830 831 832 832 832 833 833 832 832 832 832 831 831 830
744 749 747 745 746 742 738 740 742 741 744 757 762 757 759 761 762 767 779 794 791 782 790 796 785 779 775 770 769 770 768 767 764 761 763 767 770 775 780 783 788 792 794 795 795 795 799 804 807 809 812 814 816 818 819 821 822 824 824 825 826 827 829 830 830 830 829 829 830 831 831 831 831 832 832 832 833 833 833 833 832 832 831 831 830 829
739 746 749 742 740 742 740 741 746 746 743 747 749 748 753 763 769 772 777 785 788 787 793 795 789 783 775 770 770 768 765 765 764 762 765 768 770 773 778 782 784 786 789 793 796 798 801 804 807 809 812 814 816 818 819 821 822 824 825 825 827 828 829 829 829 829 830 830 831 831 831 832 832 832 833 833 834 834 833 833 832 832 831 831 830 830
736 742 748 742 737 740 742 743 747 750 748 746 746 747 752 756 761 768 772 772 776 788 793 791 794 786 766 759 761 758 758 760 761 763 765 767 770 772 774 779 782 784 786 789 793 797 801 805 807 809 812 814 815 817 819 820 822 824 825 826 827 829 828 828 829 829 830 831 831 832 832 832 833 833 834 834 834 834 833 833 832 832 832 831 831 831
736 739 745 744 743 743 742 741 740 743 747 748 750 754 756 759 758 760 768 770 770 783 790 791 794 779 755 752 753 750 753 756 758 761 764 767 770 771 772 776 780 784 786 788 791 796 799 804 807 809 812 813 814 816 818 820 822 824 825 826 827 828 827 827 828 829 830 831 831 832 832 833 833 834 834 834 834 834 833 833 833 833 833 833 832 832
735 737 741 745 746 743 738 736 734 736 738 739 745 752 752 755 758 762 774 778 772 777 784 784 780 764 752 756 756 749 750 753 756 760 765 768 769 772 774 775 778 783 787 790 792 795 798 802 806 809 811 813 814 816 818 821 823 824 825 826 826 826 826 827 829 830 831 831 832 833 833 833 834 834 834 834 834 834 833 834 834 834 834 834 834 834
730 733 738 743 743 740 737 736 733 731 732 735 739 743 745 748 750 756 768 773 773 779 781 778 769 756 755 762 759 752 749 751 755 760 765 769 770 773 776 776 779 783 786 790 792 794 797 801 806 809 811 813 814 817 820 822 824 825 825 824 824 825 827 828 829 830 831 832 833 834 833 833 834 834 834 834 834 834 835 835 835 835 836 836 835 835
728 731 736 739 740 739 737 737 735 730 733 739 738 737 741 744 744 747 754 759 767 774 773 772 765 754 756 761 755 750 749 751 755 760 766 771 771 774 777 778 782 784 785 789 791 793 797 800 805 808 810 813 815 818 820 822 824 824 823 823 824 826 827 829 830 830 831 833 833 834 834 834 834 834 834 835 835 836 836 836 837 837 837 837 837 836
727 733 735 738 744 748 745 743 743 738 735 736 737 738 739 741 746 752 755 755 760 765 762 761 758 753 757 759 752 749 750 753 759 761 766 771 773 776 778 779 783 785 786 790 792 794 797 801 805 808 810 812 815 818 820 821 823 823 823 823 824 826 828 829 830 831 832 833 833 834 834 834 835 835 836 836 837 837 838 838 839 839 839 839 838 837
725 733 732 734 744 750 748 745 743 740 738 736 737 741 740 740 744 749 755 757 758 765 764 754 750 757 763 760 753 752 753 757 762 764 766 771 774 775 778 780 783 786 787 790 792 795 799 802 806 808 810 812 814 818 820 821 822 822 823 825 825 827 829 830 831 832 832 834 834 834 835 835 836 837 837 838 838 839 840 840 840 840 840 840 839 838
725 731 729 728 733 736 735 736 737 736 737 737 738 740 740 740 740 741 751 754 752 762 765 750 747 759 765 762 757 756 757 760 764 767 768 771 774 775 778 780 784 787 789 790 793 796 799 802 806 808 810 812 815 818 819 820 820 821 823 825 826 828 829 831 832 832 833 834 835 835 836 836 837 838 838 839 840 840 841 841 841 841 841 840 839 839
724 729 730 729 732 733 733 736 740 736 731 731 733 736 738 740 740 742 748 747 747 757 757 749 753 756 753 757 758 755 757 761 763 767 769 771 774 776 778 781 785 789 791 794 796 797 799 802 805 809 810 813 815 817 818 818 819 821 823 825 827 829 830 832 833 833 834 835 836 837 837 838 839 840 840 841 841 842 842 842 842 842 842 841 840 840
720 727 731 732 736 741 741 740 742 738 733 730 728 731 735 739 741 741 743 742 742 745 742 743 752 749 743 750 753 750 754 758 761 766 769 772 775 778 780 782 786 790 793 795 797 798 800 802 805 809 811 813 816 817 817 818 819 821 824 826 828 830 831 833 834 834 835 836 837 838 838 839 840 841 842 842 843 843 843 843 843 843 843 843 842 842
718 723 729 731 733 741 744 742 741 738 736 734 731 730 731 735 737 736 739 745 743 740 741 743 747 746 743 746 749 749 753 757 761 766 769 773 776 779 782 783 786 790 793 794 796 799 801 803 806 809 811 813 816 818 817 818 820 823 825 827 830 831 833 834 835 836 837 838 839 839 840 841 842 843 844 844 844 844 844 845 845 845 845 845 844 844
718 725 730 727 729 738 741 740 741 738 736 737 739 740 735 735 739 738 743 752 749 745 752 753 748 747 747 746 748 752 755 758 764 767 768 772 775 777 781 783 785 789 792 794 798 800 801 803 806 809 811 813 816 817 816 818 822 824 826 829 831 833 835 835 836 837 839 839 840 841 841 842 843 844 845 845 846 846 846 847 847 847 847 847 846 846
718 728 732 727 727 736 740 741 741 739 738 738 742 746 741 738 742 743 745 750 744 743 755 757 747 743 744 745 750 754 757 761 765 767 768 770 772 774 778 782 785 789 792 795 797 797 799 802 805 808 811 813 815 815 816 819 822 824 826 830 833 835 836 837 837 839 840 840 841 842 843 843 844 845 846 846 847 848 848 849 849 849 849 848 848 848
718 724 730 729 728 736 743 741 737 736 738 739 743 749 746 743 744 744 746 748 741 738 745 743 735 736 741 747 753 756 758 760 761 762 764 767 770 772 775 780 786 789 791 792 793 795 799 803 806 809 811 813 814 815 817 820 822 824 826 829 834 836 837 838 839 840 841 842 843 843 844 844 845 845 846 847 849 849 850 851 850 850 850 850 850 850
719 719 727 729 727 736 743 735 733 738 740 742 751 755 753 751 749 744 744 747 742 739 740 739 740 742 741 743 748 751 752 753 754 756 759 763 768 772 775 779 783 786 788 790 791 795 799 804 808 811 811 812 814 816 819 821 823 825 827 830 833 836 838 839 841 842 843 843 844 845 845 845 846 846 847 849 850 850 851 851 851 852 852 852 852 851
718 719 730 734 730 736 741 736 738 744 742 744 754 756 753 755 754 749 748 749 748 747 746 745 747 745 739 738 742 745 747 749 753 757 760 762 765 770 775 778 780 783 786 789 792 795 799 803 807 810 811 812 814 817 820 822 825 827 829 832 834 835 838 840 842 843 844 844 845 846 846 847 847 848 849 850 851 851 852 852 853 853 854 854 853 853
715 720 731 738 737 738 741 743 745 744 741 744 752 754 754 755 754 749 744 743 747 750 747 744 746 744 740 741 744 746 749 752 756 760 761 763 765 767 771 775 779 782 784 787 791 794 798 802 806 808 810 812 815 817 820 823 825 828 830 834 835 835 836 840 843 845 845 845 846 847 848 848 849 849 851 852 852 853 853 854 855 855 856 855 855 855
712 717 725 736 744 743 740 743 742 739 740 740 741 746 749 747 746 741 733 732 742 749 747 745 747 744 741 743 747 750 752 757 763 766 763 763 765 765 767 771 775 779 783 787 791 794 798 803 806 808 810 812 814 817 820 823 825 828 831 834 836 836 836 839 844 846 846 847 848 848 849 850 850 851 852 853 853 854 855 856 857 857 857 857 857 857
712 714 714 726 744 747 741 743 747 748 745 734 730 738 742 739 742 741 733 729 737 744 744 743 745 744 743 746 751 753 756 761 765 765 762 762 764 766 769 772 775 778 783 787 791 795 799 803 805 808 810 812 815 817 820 823 825 828 831 833 836 837 837 840 844 846 847 849 849 850 851 851 852 852 853 854 855 855 856 857 858 859 859 858 858 859
717 716 712 721 740 744 737 742 750 751 742 730 729 739 742 740 742 743 737 728 728 736 741 740 742 744 743 746 749 750 755 760 758 754 755 759 763 766 769 773 777 781 784 787 791 794 798 802 806 808 810 813 815 818 820 823 826 828 831 834 836 838 839 841 844 846 848 850 850 851 852 853 853 854 854 855 856 857 858 859 859 860 860 860 860 861
720 719 717 724 736 737 734 740 747 744 736 733 735 739 742 742 742 744 740 730 726 733 736 734 737 740 741 746 749 747 747 750 746 743 748 756 762 766 769 773 777 782 786 790 793 796 799 802 805 808 812 814 816 819 822 824 827 829 832 835 837 838 840 843 845 847 849 850 852 853 854 854 855 855 856 857 857 858 859 860 861 862 862 862 862 863
726 727 728 728 731 732 732 738 742 737 732 735 738 739 742 744 742 739 734 729 730 734 734 732 735 736 738 742 744 742 744 745 742 742 747 756 762 766 770 774 777 781 785 789 793 797 801 804 806 808 812 814 817 820 822 825 827 830 833 835 837 839 841 844 846 848 850 851 853 854 855 856 856 856 857 858 859 859 860 861 863 863 863 864 864 865
728 732 734 732 733 736 734 735 740 735 730 735 741 743 744 741 735 731 731 733 735 734 732 733 735 735 737 739 740 743 747 748 747 748 752 757 762 766 771 775 779 783 787 791 794 797 800 805 809 811 813 816 818 820 823 825 827 830 834 836 837 839 842 845 847 849 851 852 854 855 856 857 857 858 859 860 860 861 862 863 865 865 865 866 866 866
729 729 732 735 740 742 739 740 743 736 729 732 737 740 740 735 729 729 732 737 737 733 731 734 735 735 737 741 744 748 749 750 751 754 757 760 763 767 772 776 780 785 789 793 797 799 800 804 809 812 814 817 819 821 823 825 828 832 835 837 838 840 842 845 847 850 852 854 855 856 857 858 859 860 861 861 862 862 863 865 866 867 867 867 867 867
732 729 730 733 736 736 733 733 736 734 733 735 733 733 735 734 733 735 733 733 734 734 732 733 734 734 736 741 747 750 751 753 755 757 760 764 766 769 773 777 781 786 789 792 797 800 802 804 809 812 815 818 820 822 824 825 828 833 836 838 839 841 843 846 848 850 853 855 856 857 858 859 860 861 862 863 863 864 865 867 868 868 868 869 869 868
733 735 734 732 733 735 732 731 735 740 743 743 739 738 739 737 737 738 734 731 732 733 732 732 734 736 738 742 747 750 752 755 757 759 762 765 768 771 774 777 781 785 789 793 797 800 802 804 808 812 816 819 821 823 825 827 829 833 837 839 840 842 844 846 849 851 854 856 856 858 859 860 862 863 863 864 865 866 867 868 869 870 870 870 870 870
740 743 741 735 735 740 740 741 744 745 743 743 742 742 742 739 738 738 736 733 732 731 731 732 734 737 740 742 746 749 753 755 757 761 764 767 770 774 776 779 783 785 789 794 798 801 803 805 809 813 816 819 822 824 826 829 831 833 837 839 841 843 845 847 850 852 855 856 857 859 860 861 863 864 864 866 866 867 869 870 870 871 871 872 872 872
742 742 741 738 735 732 733 742 748 745 743 745 742 739 739 739 738 738 737 735 734 733 733 733 734 738 741 742 745 749 753 755 757 761 765 768 771 774 777 780 784 787 790 794 797 800 803 806 810 813 815 819 822 824 827 830 833 835 837 839 842 844 846 848 850 852 855 857 858 860 861 862 864 864 865 867 868 869 871 871 872 872 873 873 874 873
741 738 739 740 738 733 735 744 748 744 744 746 743 739 739 738 737 738 737 736 735 735 735 735 736 738 740 742 745 749 753 756 758 760 765 769 771 774 777 780 783 787 792 795 797 799 802 806 809 812 814 818 822 825 827 830 833 836 838 839 842 844 846 849 851 852 855 857 859 861 862 863 864 865 866 868 869 871 872 873 874 874 875 875 875 875
741 738 739 741 740 738 739 743 743 739 738 740 741 741 740 739 739 739 738 737 737 736 737 738 738 739 740 742 745 748 752 756 758 760 764 768 771 774 777 780 783 788 792 795 798 800 802 805 809 811 815 818 822 825 828 831 833 836 838 840 843 845 847 849 851 853 856 858 859 861 863 864 865 866 867 869 871 872 873 875 875 876 876 876 876 876
740 738 740 739 735 733 734 737 738 735 732 734 738 740 740 741 741 740 739 738 738 737 738 739 740 741 742 743 744 747 752 756 759 760 762 766 770 774 777 780 784 789 793 796 798 801 804 806 808 812 815 819 822 825 828 831 834 836 838 841 843 846 847 849 851 854 856 858 860 862 863 865 866 867 869 870 872 873 874 876 877 877 877 878 878 878
740 739 739 735 732 732 734 737 739 737 735 737 741 742 742 742 742 741 740 739 738 738 738 739 741 744 746 747 747 747 749 754 759 760 762 766 770 773 776 779 784 789 794 797 799 803 807 808 809 812 816 820 823 825 828 831 833 836 839 841 844 846 847 849 851 854 857 859 861 862 863 865 867 868 870 871 873 874 875 876 878 879 879 879 880 880